Retour au catalogue

STARLINK-3323

ActifCommunicationsVLEO
NORAD 50804·PAYLOAD·🇺🇸 United States

Lancé Jan 6, 2022 depuis Cape Canaveral Space Force Station

Loading…

Prochains Passages (prochaines 24 heures)

TLE

FraisSource: CelesTrak SupGP

Époque: Sep 14, 2026, 20:21 UTC

1 50804C 22001B   26257.84840278  .00026725  00000+0  78981-3 0  2579
2 50804  53.1593  20.0459 0001248  78.5945 247.9367 15.34369148    11

Suivez STARLINK-3323 en temps réel avec AllMySat

Download on the App Store